Staunton, VA

9:28 AM EDT on May 30, 2017 (GMT -0400)
Shenandoah Valley Regional

Weather History for KSHD - August, 2014

Change the Weather History Date:

Monday, August 11, 2014

  Actual Average Record
Temperature  
Mean Temperature 68 °F -  
Max Temperature 72 °F 84 °F 96 °F (1999)
Min Temperature 63 °F 63 °F 51 °F (2008)
Cooling Degree Days 3    
Growing Degree Days 18 (Base 50)    
Moisture  
Dew Point 60 °F    
Average Humidity 80    
Maximum Humidity 91    
Minimum Humidity 51    
Precipitation  
Precipitation 0.13 in - - ()
Sea Level Pressure  
Sea Level Pressure 30.13 in    
Wind  
Wind Speed 1 mph (SE)    
Max Wind Speed 7 mph    
Max Gust Speed -    
Visibility 8 miles    
Events Rain    
Averages and records for this station are not official NWS values.
T = Trace of Precipitation, MM = Missing Value Source: NWS Daily Summary

Daily Weather History Graph

Daily Weather History Graph

Search for Another Location

Airport or City:

Trip Planner

Search our weather history database for the weather conditions in past years. The results will help you decide how hot, cold, wet, or windy it might be!

Date:

Astronomy

Aug. 11, 2014 Rise Set
Actual Time 6:26 AM EDT 8:14 PM EDT
Civil Twilight 5:58 AM EDT 8:42 PM EDT
Nautical Twilight 5:23 AM EDT 9:17 PM EDT
Astronomical Twilight 4:46 AM EDT 9:53 PM EDT
Moon 8:43 PM EDT (8/11) 7:28 AM EDT (8/11)
Length of Visible Light 14h 44m
Length of Day
13h 47m
Full, 99% of the Moon is Illuminated
Aug 11
Full
Aug 17
Last Quarter
Aug 25
New
Sep 2
First Quarter
Sep 8
Full

Hourly Weather History & Observations

Time (EDT) Temp. Dew Point Humidity Pressure Visibility Wind Dir Wind Speed Gust Speed Precip Events Conditions
12:15 AM 64.6 °F 60.8 °F 88% 30.16 in 10.0 mi Calm Calm - N/A   Overcast
12:35 AM 64.4 °F 60.6 °F 88% 30.17 in 10.0 mi Calm Calm - N/A   Overcast
12:55 AM 64.2 °F 60.8 °F 89% 30.17 in 7.0 mi Calm Calm - N/A   Overcast
1:15 AM 65.3 °F 61.7 °F 88% 30.16 in 7.0 mi Calm Calm - N/A   Overcast
1:35 AM 65.1 °F 61.9 °F 89% 30.16 in 7.0 mi Calm Calm - N/A   Overcast
1:55 AM 65.7 °F 62.1 °F 88% 30.16 in 7.0 mi Calm Calm - N/A   Overcast
2:15 AM 64.6 °F 61.3 °F 89% 30.15 in 7.0 mi Calm Calm - N/A   Overcast
2:35 AM 64.9 °F 61.7 °F 89% 30.14 in 7.0 mi Calm Calm - N/A   Overcast
2:55 AM 65.3 °F 62.2 °F 90% 30.14 in 5.0 mi Calm Calm - N/A   Overcast
3:15 AM 64.6 °F 61.7 °F 90% 30.14 in 7.0 mi Calm Calm - N/A   Overcast
3:35 AM 64.9 °F 62.1 °F 90% 30.14 in 7.0 mi Calm Calm - N/A   Overcast
4:15 AM 65.3 °F 62.1 °F 89% 30.13 in 7.0 mi Calm Calm - N/A   Overcast
4:35 AM 65.3 °F 62.1 °F 89% 30.13 in 5.0 mi Calm Calm - N/A   Overcast
4:55 AM 65.3 °F 62.6 °F 91% 30.13 in 7.0 mi Calm Calm - N/A   Overcast
5:15 AM 65.5 °F 62.1 °F 89% 30.13 in 7.0 mi Calm Calm - N/A   Overcast
5:35 AM 65.5 °F 61.7 °F 88% 30.13 in 7.0 mi Calm Calm - N/A   Overcast
5:55 AM 66.4 °F 61.0 °F 83% 30.12 in 10.0 mi Calm Calm - N/A   Overcast
6:15 AM 65.8 °F 61.7 °F 86% 30.13 in 10.0 mi Calm Calm - N/A   Overcast
6:35 AM 65.8 °F 61.5 °F 86% 30.13 in 10.0 mi Calm Calm - N/A   Overcast
6:55 AM 66.0 °F 61.3 °F 85% 30.13 in 7.0 mi Calm Calm - N/A   Overcast
7:15 AM 65.8 °F 61.7 °F 86% 30.13 in 7.0 mi Calm Calm - N/A   Overcast
7:35 AM 66.0 °F 61.7 °F 86% 30.14 in 10.0 mi Calm Calm - N/A   Overcast
7:55 AM 66.9 °F 61.7 °F 83% 30.14 in 10.0 mi Calm Calm - N/A   Overcast
8:15 AM 68.0 °F 61.3 °F 79% 30.14 in 10.0 mi Calm Calm - N/A Rain Light Rain
8:35 AM 67.5 °F 62.1 °F 83% 30.15 in 10.0 mi SW 5.8 mph - N/A   Overcast
8:55 AM 67.1 °F 61.9 °F 83% 30.16 in 10.0 mi SSW 5.8 mph - N/A   Overcast
9:15 AM 67.8 °F 61.7 °F 81% 30.15 in 10.0 mi SSE 3.5 mph - N/A   Overcast
9:35 AM 68.2 °F 60.1 °F 75% 30.15 in 10.0 mi South 5.8 mph - N/A   Overcast
9:55 AM 68.9 °F 59.4 °F 72% 30.16 in 10.0 mi SSE 4.6 mph - N/A   Overcast
10:15 AM 69.4 °F 58.3 °F 68% 30.17 in 10.0 mi SSE 4.6 mph - N/A   Overcast
10:35 AM 69.3 °F 58.6 °F 69% 30.16 in 10.0 mi SE 5.8 mph - N/A   Overcast
10:55 AM 69.4 °F 57.6 °F 66% 30.16 in 10.0 mi SE 6.9 mph - N/A Rain Light Rain
11:15 AM 69.8 °F 57.6 °F 65% 30.16 in 10.0 mi SSE 5.8 mph - N/A Rain Light Rain
11:35 AM 68.9 °F 59.9 °F 73% 30.17 in 10.0 mi South 4.6 mph - N/A Rain Light Rain
11:55 AM 68.9 °F 57.7 °F 68% 30.16 in 10.0 mi SSE 4.6 mph - N/A   Overcast
12:15 PM 69.4 °F 56.8 °F 64% 30.16 in 10.0 mi SSE 4.6 mph - N/A   Overcast
12:35 PM 70.9 °F 55.6 °F 58% 30.15 in 10.0 mi SSE 4.6 mph - N/A   Overcast
12:55 PM 71.8 °F 54.5 °F 54% 30.14 in 10.0 mi SE 5.8 mph - N/A   Overcast
1:15 PM 72.0 °F 54.7 °F 54% 30.14 in 10.0 mi ESE 3.5 mph - N/A   Overcast
1:35 PM 71.6 °F 52.5 °F 51% 30.14 in 10.0 mi South 3.5 mph - N/A   Overcast
1:55 PM 71.2 °F 54.3 °F 55% 30.14 in 10.0 mi South 3.5 mph - N/A   Overcast
2:15 PM 71.2 °F 55.6 °F 58% 30.13 in 10.0 mi SE 3.5 mph - N/A   Overcast
2:35 PM 70.9 °F 58.8 °F 66% 30.13 in 10.0 mi South 3.5 mph - N/A   Drizzle
2:55 PM 69.8 °F 59.2 °F 69% 30.12 in 10.0 mi Calm Calm - N/A Rain Light Rain
3:15 PM 70.0 °F 59.2 °F 68% 30.12 in 10.0 mi Calm Calm - N/A   Overcast
3:35 PM 69.8 °F 60.3 °F 72% 30.11 in 10.0 mi ENE 3.5 mph - N/A Rain Light Rain
3:55 PM 68.9 °F 60.8 °F 75% 30.11 in 10.0 mi NE 3.5 mph - N/A Rain Rain
4:15 PM 67.6 °F 61.7 °F 81% 30.11 in 7.0 mi ENE 5.8 mph - 0.02 in Rain Light Rain
4:35 PM 66.0 °F 60.3 °F 82% 30.11 in 10.0 mi NNE 4.6 mph - 0.04 in Rain Light Rain
4:55 PM 65.3 °F 60.8 °F 85% 30.11 in 10.0 mi NE 6.9 mph - 0.05 in Rain Rain
5:15 PM 65.3 °F 61.3 °F 87% 30.10 in 10.0 mi NE 4.6 mph - N/A Rain Light Rain
5:55 PM 65.1 °F 61.3 °F 88% 30.09 in 5.0 mi NE 4.6 mph - 0.02 in Rain Light Rain
6:15 PM 64.9 °F 61.5 °F 89% 30.09 in 7.0 mi Calm Calm - 0.01 in Rain Light Rain
6:35 PM 64.9 °F 61.7 °F 89% 30.08 in 7.0 mi Calm Calm - 0.02 in   Drizzle
6:55 PM 64.8 °F 61.7 °F 90% 30.08 in 4.0 mi North 3.5 mph - 0.05 in Rain Rain
7:15 PM 64.4 °F 61.0 °F 89% 30.07 in 7.0 mi Calm Calm - N/A   Light Drizzle
7:35 PM 64.6 °F 61.5 °F 90% 30.07 in 10.0 mi Calm Calm - N/A   Overcast
8:15 PM 64.8 °F 61.7 °F 90% 30.06 in 7.0 mi Calm Calm - N/A   Drizzle
8:35 PM 64.8 °F 61.9 °F 90% 30.07 in 7.0 mi Calm Calm - N/A   Light Drizzle
8:55 PM 64.4 °F 61.5 °F 90% 30.07 in 7.0 mi Calm Calm - N/A Rain Light Rain
9:15 PM 64.4 °F 61.5 °F 90% 30.06 in 7.0 mi Calm Calm - N/A   Overcast
9:35 PM 64.2 °F 61.5 °F 91% 30.07 in 5.0 mi Calm Calm - N/A   Drizzle
9:55 PM 63.9 °F 61.3 °F 91% 30.07 in 5.0 mi Calm Calm - 0.01 in   Overcast